Brindisi, Italy

6:37 PM CET on November 23, 2017 (GMT +0100)
Casale Mil

Weather History for LIBR - September, 2013

Change the Weather History Date:

Wednesday, September 11, 2013

  Actual Average Record
Temperature  
Mean Temperature 82 °F -  
Max Temperature 88 °F 76 °F 88 °F (2013)
Min Temperature 75 °F 62 °F 59 °F (1996)
Cooling Degree Days 16    
Growing Degree Days 32 (Base 50)    
Moisture  
Dew Point 68 °F    
Average Humidity 68    
Maximum Humidity 83    
Minimum Humidity 38    
Precipitation  
Precipitation 0.00 in 0.07 in - ()
Sea Level Pressure  
Sea Level Pressure 29.98 in    
Wind  
Wind Speed 11 mph ()    
Max Wind Speed 21 mph    
Max Gust Speed -    
Visibility 6.2 miles    
Events      
Averages and records for this station are not official NWS values.
T = Trace of Precipitation, MM = Missing Value Source: Averaged Metar Reports

Daily Weather History Graph

Daily Weather History Graph

Search for Another Location

Airport or City:

Trip Planner

Search our weather history database for the weather conditions in past years. The results will help you decide how hot, cold, wet, or windy it might be!

Date:

Astronomy

Sep. 11, 2013 Rise Set
Actual Time 6:24 AM CEST 7:03 PM CEST
Civil Twilight 5:57 AM CEST 7:31 PM CEST
Nautical Twilight 5:24 AM CEST 8:04 PM CEST
Astronomical Twilight 4:51 AM CEST 8:37 PM CEST
Moon 12:36 PM CEST (9/11) 10:41 PM CEST (9/11)
Length of Visible Light 13h 34m
Length of Day
12h 38m
Waxing Crescent, 36% of the Moon is Illuminated
Sep 11
Waxing Crescent
Sep 12
First Quarter
Sep 19
Full
Sep 27
Last Quarter
Oct 5
New

Hourly Weather History & Observations

Time (CEST) Temp. Heat Index Dew Point Humidity Pressure Visibility Wind Dir Wind Speed Gust Speed Precip Events Conditions
12:15 AM 77.0 °F - 71.6 °F 83% 30.01 in - South 8.1 mph - N/A   Clear
12:45 AM 77.0 °F - 71.6 °F 83% 30.01 in - SSE 9.2 mph - N/A   Clear
1:15 AM 78.8 °F - 71.6 °F 78% 29.98 in - SW 16.1 mph - N/A   Clear
1:45 AM 78.8 °F - 71.6 °F 78% 29.98 in - SW 18.4 mph - N/A   Clear
2:00 AM 79 °F - 71 °F 72% 29.99 in 6 mi SW 18.4 mph - -   Clear
2:15 AM 80.6 °F 85.4 °F 73.4 °F 79% 29.98 in - SW 17.3 mph - N/A   Clear
2:45 AM 78.8 °F - 71.6 °F 78% 29.95 in - SW 17.3 mph - N/A   Clear
3:15 AM 78.8 °F - 71.6 °F 78% 29.95 in - SW 17.3 mph - N/A   Clear
3:45 AM 78.8 °F - 71.6 °F 78% 29.95 in - SW 16.1 mph - N/A   Clear
7:45 AM 77.0 °F - 66.2 °F 69% 29.95 in 6.2 mi SW 11.5 mph - N/A   Scattered Clouds
8:00 AM 77 °F - 67 °F 64% 29.95 in 6 mi SW 11.5 mph - -   Partly Cloudy
8:15 AM 78.8 °F - 68.0 °F 69% 29.95 in 6.2 mi SW 10.4 mph - N/A   Partly Cloudy
8:45 AM 80.6 °F 83.9 °F 69.8 °F 70% 29.98 in 6.2 mi West 9.2 mph - N/A   Partly Cloudy
9:15 AM 82.4 °F 86.3 °F 69.8 °F 66% 29.98 in 6.2 mi West 12.7 mph - N/A   Partly Cloudy
9:45 AM 84.2 °F 86.6 °F 66.2 °F 55% 29.98 in 6.2 mi West 17.3 mph - N/A   Partly Cloudy
10:15 AM 86.0 °F 86.6 °F 62.6 °F 45% 29.98 in 6.2 mi West 20.7 mph - N/A   Partly Cloudy
10:45 AM 87.8 °F 88.5 °F 62.6 °F 43% 29.98 in 6.2 mi West 19.6 mph - N/A   Partly Cloudy
11:15 AM 87.8 °F 87.1 °F 59.0 °F 38% 29.98 in 6.2 mi North 9.2 mph - N/A   Partly Cloudy
11:45 AM 84.2 °F 85.0 °F 62.6 °F 48% 29.98 in 6.2 mi North 11.5 mph - N/A   Partly Cloudy
12:15 PM 82.4 °F 85.4 °F 68.0 °F 62% 29.98 in 6.2 mi North 10.4 mph - N/A   Partly Cloudy
12:45 PM 82.4 °F 84.6 °F 66.2 °F 58% 29.98 in 6.2 mi North 10.4 mph - N/A   Partly Cloudy
1:15 PM 82.4 °F 84.6 °F 66.2 °F 58% 29.98 in 6.2 mi North 10.4 mph - N/A   Partly Cloudy
1:45 PM 82.4 °F 84.6 °F 66.2 °F 58% 29.98 in 6.2 mi North 10.4 mph - N/A   Partly Cloudy
2:00 PM 82 °F - 66 °F 49% 30.00 in 6 mi North 10.4 mph - -   Scattered Clouds
2:15 PM 82.4 °F 84.6 °F 66.2 °F 58% 29.98 in 6.2 mi North 10.4 mph - N/A   Partly Cloudy
2:45 PM 80.6 °F 82.7 °F 66.2 °F 61% 29.98 in 6.2 mi North 10.4 mph - N/A   Partly Cloudy
3:15 PM 80.6 °F 83.2 °F 68.0 °F 65% 29.98 in 6.2 mi NNE 9.2 mph - N/A   Partly Cloudy
3:45 PM 80.6 °F 83.2 °F 68.0 °F 65% 29.98 in 6.2 mi NE 10.4 mph - N/A   Partly Cloudy
4:15 PM 80.6 °F 83.2 °F 68.0 °F 65% 29.98 in 6.2 mi NE 9.2 mph - N/A   Partly Cloudy
4:45 PM 80.6 °F 83.2 °F 68.0 °F 65% 29.98 in 6.2 mi ENE 9.2 mph - N/A   Partly Cloudy
5:15 PM 80.6 °F 83.2 °F 68.0 °F 65% 29.98 in 6.2 mi ENE 11.5 mph - N/A   Partly Cloudy
5:45 PM 80.6 °F 83.2 °F 68.0 °F 65% 29.98 in 6.2 mi East 12.7 mph - N/A   Partly Cloudy
6:15 PM 78.8 °F - 66.2 °F 65% 29.98 in 6.2 mi East 12.7 mph - N/A   Partly Cloudy
6:45 PM 78.8 °F - 68.0 °F 69% 29.98 in 6.2 mi East 11.5 mph - N/A   Partly Cloudy
7:15 PM 77.0 °F - 68.0 °F 74% 29.98 in 6.2 mi East 12.7 mph - N/A   Partly Cloudy
7:45 PM 77.0 °F - 68.0 °F 74% 29.98 in 6.2 mi ESE 8.1 mph - N/A   Partly Cloudy
8:00 PM 77 °F - 69 °F 68% 29.99 in 6 mi ESE 8.1 mph - -   Scattered Clouds
8:15 PM 77.0 °F - 69.8 °F 78% 29.98 in 6.2 mi SE 9.2 mph - N/A   Partly Cloudy
8:45 PM 75.2 °F - 69.8 °F 83% 29.98 in 6.2 mi SE 8.1 mph - N/A   Partly Cloudy
9:15 PM 75.2 °F - 69.8 °F 83% 29.98 in 6.2 mi SSE 8.1 mph - N/A   Partly Cloudy
9:45 PM 75.2 °F - 69.8 °F 83% 29.98 in 6.2 mi SSE 8.1 mph - N/A   Partly Cloudy
10:15 PM 75.2 °F - 69.8 °F 83% 29.98 in 6.2 mi SSE 6.9 mph - N/A   Partly Cloudy
10:45 PM 75.2 °F - 69.8 °F 83% 29.98 in - South 8.1 mph - N/A   Clear
11:15 PM 75.2 °F - 69.8 °F 83% 29.98 in - South 11.5 mph - N/A   Clear
11:45 PM 75.2 °F - 68.0 °F 78% 29.95 in - WSW 1.2 mph - N/A   Clear